1493895600.53,15763,14.19,73602.5,3.17,2.31,2.21,0,*7F
1493895601.76,15764,14.19,73604.8,3.17,2.47,2.47,0,*79
1493895602.99,15765,14.19,73604.8,3.19,2.55,2.61,0,*71
1493895604.21,15766,14.19,73608.3,3.17,2.09,2.01,0,*73
1493895605.44,15767,14.19,73612.5,3.17,1.47,1.37,0,*7D
1493895606.67,15768,14.19,73612.3,3.17,1.25,1.13,0,*70
1493895607.89,15769,14.19,73614.5,3.15,1.85,1.75,0,*79
1493895609.12,15770,14.19,73606.5,3.13,2.55,2.55,0,*78
1493895610.37,15771,14.19,73602.0,3.15,2.47,2.47,0,*7F
1493895611.62,15772,14.19,73602.3,3.15,2.43,2.47,0,*78
1493895612.81,15773,14.19,73596.8,3.15,2.31,2.31,0,*7D
1493895614.03,15774,14.19,73602.8,3.15,2.31,2.21,0,*7B
1493895615.27,15775,14.19,73604.3,3.15,2.21,2.09,0,*71
1493895616.47,15776,14.19,73600.5,3.17,1.89,1.79,0,*75
1493895617.7,15777,14.19,73602.3,3.17,1.47,1.29,0,*73
1493895618.94,15778,14.19,73606.0,3.15,1.71,1.63,0,*75
1493895620.19,15779,14.19,73600.0,3.15,2.17,2.09,0,*78
1493895621.42,15780,14.19,73602.5,3.13,1.63,1.33,0,*72
1493895622.68,15781,14.19,73600.0,3.15,1.25,1.21,0,*74
1493895623.9,15782,14.19,73604.5,3.13,1.63,1.55,0,*70
1493895625.13,15783,14.19,73610.0,3.13,1.93,1.85,0,*73
1493895626.33,15784,14.19,73606.8,3.13,1.75,1.63,0,*74
1493895627.56,15785,14.19,73608.5,3.13,1.63,1.55,0,*77
1493895628.78,15786,14.19,73610.0,3.11,1.79,1.71,0,*7B
1493895630.02,15787,14.19,73614.3,3.11,1.67,1.67,0,*72
1493895631.24,15788,14.19,73616.0,3.11,1.43,1.41,0,*7F
1493895632.47,15789,14.19,73614.8,3.11,1.17,1.05,0,*7F
1493895633.67,15790,14.19,73614.0,3.09,1.09,1.05,0,*71
1493895634.86,15791,14.19,73612.3,3.09,1.83,1.89,0,*76
1493895636.08,15792,14.19,73610.3,3.09,2.01,2.01,0,*7F
1493895637.31,15793,14.19,73608.3,3.11,1.93,1.79,0,*73
1493895638.54,15794,14.19,73608.0,3.09,1.55,1.55,0,*79
1493895639.76,15795,14.19,73610.0,3.09,2.05,2.13,0,*7F
1493895640.98,15796,14.19,73604.5,3.09,2.55,2.55,0,*7B
1493895642.21,15797,14.19,73604.5,3.11,1.09,0.97,0,*45
1493895643.43,15798,14.19,73608.8,3.09,1.93,2.05,0,*79
1493895644.65,15799,14.19,73606.3,3.09,2.55,2.55,0,*74
1493895645.9,15800,14.19,73602.0,3.11,1.67,1.51,0,*77
1493895647.14,15801,14.19,73606.5,3.11,1.67,1.55,0,*72
1493895648.38,15802,14.19,73604.5,3.11,1.59,1.59,0,*70
1493895649.58,15803,14.19,73602.8,3.09,1.79,1.71,0,*70
1493895650.8,15804,14.19,73604.0,3.09,2.05,2.13,0,*78
1493895652.03,15805,14.19,73604.8,3.09,2.01,1.93,0,*76
1493895653.22,15806,14.19,73600.5,3.09,1.89,1.79,0,*72
1493895654.46,15807,14.19,73606.5,3.07,1.89,1.89,0,*72
1493895655.69,15808,14.19,73606.8,3.09,2.25,2.13,0,*76
1493895656.86,15809,14.19,73606.5,3.09,2.35,2.35,0,*72
1493895658.09,15810,14.19,73610.0,3.09,2.39,2.43,0,*77
1493895659.26,15811,14.19,73610.3,3.09,2.35,2.35,0,*7B
1493895660.46,15812,14.19,73612.0,3.11,2.27,2.27,0,*71
1493895661.69,15813,14.19,73608.8,3.11,2.65,2.73,0,*77
1493895662.91,15814,14.19,73606.0,3.11,1.83,1.71,0,*7A
1493895664.14,15815,14.19,73606.5,3.13,2.17,2.05,0,*77
1493895665.38,15816,14.19,73604.3,3.11,1.59,1.51,0,*7D
1493895666.64,15817,14.19,73610.8,3.11,1.55,1.55,0,*74
1493895667.86,15818,14.19,73612.0,3.11,1.79,1.71,0,*73
1493895669.06,15819,14.19,73608.8,3.09,1.71,1.83,0,*7E
1493895670.28,15820,14.19,73612.3,3.11,2.27,2.25,0,*72
1493895671.54,15821,14.19,73612.5,3.11,2.43,2.51,0,*72
1493895672.77,15822,14.19,73612.3,3.11,2.39,2.35,0,*7E
1493895674.01,15823,14.19,73618.5,3.11,1.71,1.67,0,*74
1493895675.24,15824,14.19,73618.3,3.11,1.93,1.79,0,*70
1493895676.49,15825,14.19,73616.3,3.11,1.43,1.29,0,*79
1493895677.69,15826,14.19,73618.0,3.11,1.79,1.79,0,*76
1493895678.91,15827,14.19,73610.3,3.09,2.25,2.17,0,*7F
1493895680.11,15828,14.19,73614.3,3.11,2.35,2.27,0,*7B
1493895681.31,15829,14.19,73614.5,3.13,1.75,1.71,0,*7F
1493895682.55,15830,14.19,73612.5,3.11,1.71,1.59,0,*7B
1493895683.78,15831,14.19,73616.3,3.09,2.13,2.05,0,*7E
1493895684.98,15832,14.19,73614.3,3.11,2.27,2.35,0,*70
1493895686.23,15833,14.19,73612.0,3.11,2.17,2.01,0,*75
1493895687.48,15834,14.19,73612.3,3.11,2.01,2.05,0,*71
1493895688.74,15835,14.19,73616.0,3.11,2.25,2.17,0,*75
1493895689.94,15836,14.19,73608.5,3.11,1.79,1.79,0,*77
1493895691.19,15837,14.19,73614.8,3.11,1.71,1.67,0,*71
1493895692.38,15838,14.19,73618.3,3.11,2.27,2.27,0,*79
1493895693.63,15839,14.19,73616.5,3.11,2.55,2.55,0,*78
1493895694.86,15840,14.19,73614.3,3.11,2.27,2.17,0,*75
1493895696.06,15841,14.19,73612.0,3.13,2.39,2.27,0,*7A
1493895697.26,15842,14.19,73616.3,3.13,2.39,2.31,0,*7E
1493895698.48,15843,14.19,73616.3,3.13,2.05,1.93,0,*7B
1493895699.66,15844,14.19,73614.8,3.13,1.75,1.75,0,*70
1493895700.84,15845,14.19,73614.8,3.13,2.27,2.27,0,*71
1493895702.08,15846,14.19,73614.3,3.15,2.05,1.93,0,*78
1493895703.3,15847,14.19,73614.3,3.13,2.21,2.09,0,*79
1493895704.51,15848,14.19,73616.3,3.13,2.05,1.83,0,*71
1493895705.7,15849,14.19,73620.3,3.13,1.83,1.71,0,*70
1493895706.95,15850,14.19,73618.0,3.11,2.01,1.89,0,*74
1493895708.19,15851,14.19,73616.0,3.11,2.05,2.01,0,*72
1493895709.44,15852,14.19,73624.8,3.11,2.73,2.73,0,*75
1493895710.67,15853,14.19,73626.0,3.13,2.43,2.43,0,*76
1493895711.88,15854,14.19,73626.5,3.13,2.31,2.17,0,*75
1493895713.05,15855,14.19,73626.0,3.13,1.83,1.75,0,*79
1493895714.23,15856,14.19,73628.0,3.13,2.31,2.31,0,*73
1493895715.46,15857,14.19,73626.8,3.13,2.43,2.43,0,*72
1493895716.69,15858,14.19,73628.0,3.13,1.25,1.21,0,*79
1493895717.92,15859,14.19,73630.3,3.13,2.05,2.17,0,*7F
1493895719.14,15860,14.19,73624.3,3.13,2.05,1.97,0,*7E
1493895720.34,15861,14.19,73630.0,3.13,1.75,1.71,0,*73
1493895721.57,15862,14.19,73626.0,3.13,1.97,1.97,0,*74
1493895722.79,15863,14.19,73620.3,3.11,1.83,1.71,0,*7A
1493895723.96,15864,14.19,73620.5,3.13,1.83,1.75,0,*7B
1493895725.18,15865,14.19,73618.5,3.13,1.71,1.59,0,*79
1493895726.41,15866,14.19,73620.8,3.13,1.63,1.55,0,*75
1493895727.66,15867,14.19,73626.5,3.15,1.93,1.85,0,*70
1493895728.89,15868,14.19,73622.0,3.13,2.39,2.39,0,*7E
1493895730.07,15869,14.19,73622.5,3.13,2.91,2.99,0,*77
1493895731.27,15870,14.19,73626.5,3.13,2.99,3.03,0,*75
1493895732.49,15871,14.19,73628.8,3.15,2.31,2.21,0,*71
1493895733.75,15872,14.19,73630.5,3.15,2.17,2.09,0,*7C
1493895735.0,15873,14.19,73632.5,3.15,2.43,2.55,0,*75
1493895736.19,15874,14.19,73626.5,3.13,2.31,2.21,0,*72
1493895737.43,15875,14.19,73622.8,3.15,2.21,2.21,0,*74
1493895738.69,15876,14.19,73622.3,3.15,2.43,2.43,0,*77
1493895739.91,15877,14.19,73618.8,3.17,1.97,1.89,0,*7B
1493895741.15,15878,14.19,73616.3,3.15,1.71,1.55,0,*7F
1493895742.41,15879,14.19,73620.8,3.15,1.55,1.37,0,*7C
1493895743.66,15880,14.19,73618.8,3.15,2.39,2.39,0,*7E
1493895744.9,15881,14.19,73624.8,3.15,2.21,2.21,0,*7F
1493895746.12,15882,14.19,73620.3,3.15,2.31,2.39,0,*74
1493895747.37,15883,14.19,73622.5,3.15,2.09,1.93,0,*7D
1493895748.61,15884,14.19,73622.3,3.15,1.55,1.43,0,*7D
1493895749.86,15885,14.19,73622.3,3.15,2.39,2.39,0,*7B
1493895751.06,15886,14.19,73618.0,3.15,2.31,2.27,0,*7F
1493895752.23,15887,14.19,73620.0,3.17,2.35,2.35,0,*7B
1493895753.41,15888,14.19,73622.0,3.17,2.95,2.95,0,*74
1493895754.58,15889,14.19,73618.8,3.17,2.95,2.95,0,*75
1493895755.84,15890,14.19,73612.5,3.19,3.07,3.07,0,*73
1493895757.07,15891,14.19,73610.3,3.19,2.99,3.11,0,*73
1493895758.32,15892,14.19,73612.0,3.19,3.11,3.23,0,*70
1493895759.52,15893,14.19,73616.8,3.21,3.07,2.99,0,*7D
1493895760.75,15894,14.19,73612.0,3.25,1.93,1.85,0,*7F
1493895761.95,15895,14.19,73616.3,3.21,1.89,1.83,0,*77
1493895763.18,15896,14.19,73618.5,3.21,1.71,1.67,0,*79
1493895764.42,15897,14.19,73614.5,3.19,2.13,2.05,0,*73
1493895765.65,15898,14.19,73616.0,3.21,2.13,2.01,0,*73
1493895766.91,15899,14.19,73612.8,3.19,1.33,1.17,0,*7C
1493895768.15,15900,14.19,73614.8,3.19,1.89,1.89,0,*7B
1493895769.4,15901,14.19,73614.5,3.19,2.47,2.51,0,*7D
1493895770.65,15902,14.19,73612.3,3.19,2.13,2.05,0,*7E
1493895771.91,15903,14.19,73612.0,3.19,2.13,2.13,0,*78
1493895773.13,15904,14.19,73616.0,3.19,2.61,2.55,0,*78
1493895774.39,15905,14.19,73618.5,3.19,2.51,2.51,0,*7E
1493895775.64,15906,14.19,73620.8,3.19,2.51,2.47,0,*7A
1493895776.86,15907,14.19,73618.8,3.21,2.73,2.73,0,*77
1493895778.04,15908,14.19,73620.8,3.21,2.95,2.99,0,*74
1493895779.24,15909,14.19,73616.8,3.21,2.89,2.95,0,*74
1493895780.42,15910,14.19,73616.5,3.21,2.65,2.65,0,*71
1493895781.63,15911,14.19,73616.0,3.25,2.91,3.03,0,*7E
1493895782.85,15912,14.19,73612.3,3.25,3.11,3.11,0,*77
1493895784.07,15913,14.19,73614.5,3.25,2.21,2.09,0,*7C
1493895785.31,15914,14.19,73612.3,3.21,2.17,2.05,0,*76
1493895786.54,15915,14.19,73610.0,3.21,2.25,2.13,0,*71
1493895787.74,15916,14.19,73616.0,3.21,2.27,2.17,0,*74
1493895788.97,15917,14.19,73614.8,3.25,2.43,2.43,0,*72
1493895790.2,15918,14.19,73612.3,3.25,1.97,1.85,0,*7E
1493895791.42,15919,14.19,73614.0,3.25,1.71,1.67,0,*7B
1493895792.64,15920,14.19,73622.3,3.21,1.93,1.89,0,*79
1493895793.88,15921,14.19,73620.8,3.21,2.17,2.13,0,*77
1493895795.1,15922,14.19,73618.5,3.21,2.05,1.93,0,*7C
1493895796.29,15923,14.19,73616.5,3.21,1.51,1.41,0,*70
1493895797.55,15924,14.19,73616.3,3.19,2.13,2.13,0,*7D
1493895798.72,15925,14.19,73620.0,3.21,1.83,1.83,0,*77
1493895799.9,15926,14.19,73616.5,3.21,1.83,1.83,0,*74
1493895801.15,15927,14.19,73620.0,3.19,1.17,1.13,0,*7A
1493895802.35,15928,14.19,73618.3,3.19,2.35,2.35,0,*71
1493895803.54,15929,14.19,73618.5,3.21,2.61,2.61,0,*7B
1493895804.76,15930,14.19,73620.8,3.21,2.47,2.47,0,*73
1493895806.02,15931,14.19,73622.3,3.19,2.13,2.17,0,*7D
1493895807.2,15932,14.19,73626.8,3.21,2.61,2.65,0,*75
1493895808.43,15933,14.19,73626.5,3.21,2.25,2.13,0,*75
1493895809.66,15934,14.19,73624.0,3.21,2.13,2.13,0,*77
1493895810.84,15935,14.19,73626.0,3.21,1.83,1.79,0,*73
1493895812.06,15936,14.19,73624.8,3.17,1.97,1.97,0,*70
1493895813.31,15937,14.19,73624.5,3.19,2.51,2.47,0,*78
1493895814.51,15938,14.19,73620.0,3.19,2.35,2.27,0,*73
1493895815.71,15939,14.19,73626.3,3.19,2.35,2.35,0,*71
1493895816.94,15940,14.19,73624.0,3.21,2.17,2.13,0,*70
1493895818.19,15941,14.19,73620.5,3.19,2.05,2.05,0,*7E
1493895819.45,15942,14.19,73622.0,3.19,2.17,2.13,0,*79
1493895820.7,15943,14.19,73618.3,3.19,1.71,1.63,0,*7F
1493895821.93,15944,14.19,73624.5,3.19,2.55,2.61,0,*7C
1493895823.16,15945,14.19,73622.0,3.17,2.47,2.47,0,*74
1493895824.36,15946,14.19,73622.3,3.21,2.55,2.61,0,*75
1493895825.59,15947,14.19,73622.3,3.25,2.77,2.77,0,*77
1493895826.77,15948,14.19,73626.8,3.21,2.61,2.61,0,*7C
1493895827.94,15949,14.19,73624.0,3.25,2.31,2.27,0,*7E
1493895829.17,15950,14.19,73628.0,3.25,2.43,2.43,0,*71
1493895830.39,15951,14.19,73628.3,3.25,2.55,2.55,0,*70
1493895831.59,15952,14.19,73626.8,3.25,2.39,2.31,0,*7B
1493895832.78,15953,14.19,73630.0,3.25,2.89,2.99,0,*73
1493895834.01,15954,14.19,73628.3,3.27,3.15,3.25,0,*74
1493895835.25,15955,14.19,73628.5,3.29,3.07,3.07,0,*78
1493895836.5,15956,14.19,73630.8,3.27,2.81,2.89,0,*7D
1493895837.75,15957,14.19,73624.8,3.27,2.55,2.59,0,*78
1493895838.96,15958,14.19,73624.0,3.29,2.91,3.03,0,*7F
1493895840.17,15959,14.19,73626.0,3.29,2.91,2.85,0,*71
1493895841.37,15960,14.19,73626.0,3.29,2.59,2.35,0,*74
1493895842.6,15961,14.19,73628.3,3.29,2.69,2.81,0,*79
1493895843.8,15962,14.19,73624.0,3.27,2.99,2.99,0,*72
1493895845.03,15963,14.19,73624.3,3.29,2.85,2.85,0,*7D
1493895846.27,15964,14.19,73620.5,3.31,2.13,2.21,0,*72
1493895847.52,15965,14.19,73618.8,3.31,2.43,2.55,0,*75
1493895848.75,15966,14.19,73618.5,3.31,2.47,2.35,0,*74
1493895850.0,15967,14.19,73616.5,3.31,2.55,2.59,0,*7C
1493895851.23,15968,14.19,73616.0,3.31,2.95,3.03,0,*71
1493895852.47,15969,14.19,73616.5,3.31,2.73,2.73,0,*7E
1493895853.72,15970,14.19,73612.3,3.31,2.85,2.85,0,*76
1493895854.97,15971,14.19,73616.5,3.33,2.59,2.55,0,*79
1493895856.22,15972,14.19,73610.8,3.31,2.47,2.47,0,*74
1493895857.47,15973,14.19,73612.8,3.31,2.21,2.13,0,*74
1493895858.73,15974,14.19,73612.3,3.33,1.93,2.01,0,*78
1493895859.93,15975,14.19,73610.8,3.31,2.31,2.31,0,*73
1493895861.12,15976,14.19,73606.8,3.31,2.35,2.31,0,*74
1493895862.37,15977,14.19,73608.3,3.31,1.97,1.89,0,*7E
1493895863.61,15978,14.19,73608.3,3.31,1.89,2.01,0,*7D
1493895864.87,15979,14.19,73610.0,3.27,2.17,2.05,0,*7B
1493895866.09,15980,14.19,73610.0,3.31,1.89,1.79,0,*76
1493895867.32,15981,14.19,73614.0,3.29,1.55,1.63,0,*74
1493895868.58,15982,14.19,73612.5,3.27,1.93,1.85,0,*7B
1493895869.8,15983,14.19,73608.0,3.27,1.85,1.83,0,*7B
1493895871.05,15984,14.19,73604.8,3.27,2.09,2.09,0,*7A
1493895872.3,15985,14.19,73614.5,3.27,2.09,1.97,0,*7F
1493895873.52,15986,14.19,73612.5,3.27,1.71,1.75,0,*7C
1493895874.77,15987,14.19,73612.5,3.27,1.97,1.93,0,*7D
1493895876.0,15988,14.19,73614.8,3.21,1.71,1.33,0,*76
1493895877.22,15989,14.19,73616.3,3.25,1.71,1.67,0,*72
1493895878.39,15990,14.19,73614.8,3.25,2.27,2.31,0,*7A
1493895879.62,15991,14.19,73616.3,3.25,2.39,2.39,0,*7C
1493895880.84,15992,14.19,73618.3,3.25,2.55,2.55,0,*7F
1493895882.07,15993,14.19,73614.5,3.25,2.51,2.51,0,*7E
1493895883.29,15994,14.19,73618.5,3.25,2.55,2.55,0,*79
1493895884.52,15995,14.19,73618.0,3.25,2.77,2.81,0,*71
1493895885.69,15996,14.19,73614.8,3.25,2.91,2.99,0,*73
1493895886.89,15997,14.19,73618.5,3.27,2.91,2.91,0,*78
1493895888.1,15998,14.19,73618.8,3.27,2.91,2.99,0,*7F
1493895889.32,15999,14.19,73616.8,3.29,2.73,2.73,0,*78
1493895890.55,16000,14.19,73620.0,3.29,2.73,2.73,0,*72
1493895891.78,16001,14.19,73620.8,3.29,2.59,2.59,0,*73
1493895893.01,16002,14.19,73626.0,3.29,2.13,2.09,0,*7B
1493895894.24,16003,14.19,73622.8,3.27,1.85,1.75,0,*70
1493895895.5,16004,14.19,73618.8,3.27,1.85,1.85,0,*78
1493895896.74,16005,14.19,73624.3,3.27,2.09,1.97,0,*7D
1493895897.97,16006,14.19,73618.5,3.27,2.27,2.17,0,*79
1493895899.22,16007,14.19,73612.3,3.27,2.43,2.43,0,*7B
1493895900.45,16008,14.19,73612.3,3.27,1.85,1.83,0,*72
1493895901.68,16009,14.19,73608.5,3.27,2.27,2.17,0,*76
1493895902.91,16010,14.19,73610.3,3.27,1.93,1.83,0,*7C
1493895904.09,16011,14.19,73604.8,3.21,1.83,1.83,0,*7A
1493895905.26,16012,14.19,73606.8,3.25,1.83,1.75,0,*74
1493895906.48,16013,14.19,73604.8,3.25,1.09,0.95,0,*48
1493895907.71,16014,14.25,73610.8,3.21,1.43,1.33,0,*78
1493895908.91,16015,14.19,73604.0,3.21,1.21,0.97,0,*42
1493895910.11,16016,14.25,73606.5,3.21,1.17,0.97,0,*44
1493895911.34,16017,14.19,73602.3,3.21,1.63,1.67,0,*78
1493895912.58,16018,14.19,73604.3,3.19,2.13,2.01,0,*7B
1493895913.84,16019,14.19,73604.3,3.19,2.25,2.17,0,*78
1493895915.08,16020,14.19,73604.8,3.19,1.93,1.93,0,*73
1493895916.33,16021,14.19,73602.3,3.19,2.25,2.25,0,*72
1493895917.56,16022,14.25,73608.3,3.19,2.27,2.17,0,*72
1493895918.81,16023,14.19,73604.5,3.19,1.55,1.51,0,*74
1493895920.01,16024,14.19,73606.5,3.19,2.27,2.35,0,*74
1493895921.26,16025,14.19,73608.3,3.19,1.93,1.89,0,*7D
1493895922.51,16026,14.19,73604.3,3.19,2.13,2.13,0,*75
1493895923.73,16027,14.25,73608.3,3.17,2.13,2.01,0,*79
1493895924.98,16028,14.19,73608.0,3.19,2.05,1.93,0,*77
1493895926.2,16029,14.19,73608.0,3.19,1.89,1.83,0,*70
1493895927.44,16030,14.19,73612.5,3.19,2.51,2.61,0,*71
1493895928.66,16031,14.19,73612.8,3.21,2.77,2.89,0,*79
1493895929.85,16032,14.19,73610.3,3.21,2.61,2.61,0,*7B
1493895931.05,16033,14.25,73614.5,3.25,2.69,2.65,0,*72
1493895932.28,16034,14.19,73614.5,3.21,2.13,2.25,0,*78
1493895933.51,16035,14.19,73608.0,3.21,2.47,2.47,0,*7C
1493895934.71,16036,14.19,73614.8,3.21,2.55,2.65,0,*7C
1493895935.94,16037,14.19,73614.8,3.21,2.39,2.39,0,*7E
1493895937.17,16038,14.25,73622.5,3.21,2.13,2.01,0,*72
1493895938.4,16039,14.19,73618.8,3.21,2.39,2.51,0,*7E
1493895939.6,16040,14.25,73616.5,3.21,2.39,2.27,0,*71
1493895940.79,16041,14.25,73622.5,3.21,2.65,2.65,0,*7F
1493895942.01,16042,14.19,73616.8,3.21,2.25,2.13,0,*79
1493895943.22,16043,14.19,73614.0,3.21,2.47,2.35,0,*78
1493895944.42,16044,14.19,73618.3,3.25,2.59,2.65,0,*71
1493895945.67,16045,14.25,73622.3,3.27,2.69,2.81,0,*7B
1493895946.9,16046,14.19,73622.5,3.25,2.51,2.55,0,*78
1493895948.09,16047,14.19,73620.0,3.25,2.39,2.31,0,*75
1493895949.31,16048,14.19,73622.5,3.25,2.55,2.55,0,*72
1493895950.52,16049,14.19,73626.5,3.25,2.59,2.65,0,*7C
1493895951.75,16050,14.25,73630.3,3.25,2.43,2.39,0,*76
1493895953.0,16051,14.25,73630.0,3.27,2.81,2.81,0,*78
1493895954.2,16052,14.25,73628.0,3.25,2.91,3.03,0,*73
1493895955.43,16053,14.19,73628.8,3.27,2.91,3.03,0,*70
1493895956.66,16054,14.19,73624.0,3.29,2.69,2.69,0,*73
1493895957.86,16055,14.25,73626.0,3.29,2.81,2.91,0,*73
1493895959.12,16056,14.19,73622.5,3.27,3.03,3.11,0,*7C
1493895960.35,16057,14.25,73626.5,3.29,3.15,3.19,0,*7C
1493895961.55,16058,14.25,73622.8,3.29,2.85,2.91,0,*7A
1493895962.78,16059,14.19,73624.8,3.29,2.55,2.59,0,*72
1493895964.0,16060,14.19,73626.3,3.29,2.73,2.73,0,*74
1493895965.21,16061,14.25,73628.3,3.29,2.91,3.03,0,*7F
1493895966.44,16062,14.25,73624.3,3.31,2.61,2.69,0,*77
1493895967.69,16063,14.19,73622.3,3.31,2.13,2.09,0,*75
1493895968.89,16064,14.25,73624.5,3.29,1.17,1.05,0,*73
1493895970.12,16065,14.25,73624.8,3.29,1.71,1.59,0,*7B
1493895971.34,16066,14.19,73626.3,3.29,1.89,1.89,0,*72
1493895972.57,16067,14.19,73624.3,3.29,2.47,2.55,0,*70
1493895973.8,16068,14.19,73626.0,3.29,2.17,1.97,0,*77
1493895975.0,16069,14.25,73626.3,3.27,2.27,2.31,0,*74
1493895976.25,16070,14.25,73626.8,3.27,2.51,2.51,0,*7B
1493895977.5,16071,14.19,73620.3,3.27,2.77,2.81,0,*73
1493895978.71,16072,14.19,73622.8,3.29,2.95,3.03,0,*79
1493895979.94,16073,14.25,73622.5,3.31,2.95,3.03,0,*71
1493895981.14,16074,14.25,73618.5,3.31,2.61,2.61,0,*78
1493895982.37,16075,14.19,73620.0,3.31,2.31,2.25,0,*7C
1493895983.57,16076,14.25,73618.3,3.27,2.27,2.31,0,*7A
1493895984.79,16077,14.19,73616.0,3.29,1.97,1.97,0,*72
1493895986.03,16078,14.19,73618.5,3.29,2.47,2.43,0,*79
1493895987.23,16079,14.25,73620.0,3.29,2.35,2.25,0,*7D
1493895988.44,16080,14.25,73626.0,3.29,1.85,1.75,0,*75
1493895989.69,16081,14.25,73622.0,3.27,2.05,1.97,0,*7D
1493895990.88,16082,14.19,73622.8,3.27,1.83,1.75,0,*7F
1493895992.12,16083,14.19,73620.3,3.29,1.85,1.85,0,*79
1493895993.37,16084,14.19,73620.0,3.27,2.05,1.97,0,*78
1493895994.56,16085,14.19,73618.8,3.27,2.31,2.27,0,*76
1493895995.81,16086,14.19,73624.0,3.27,2.21,2.21,0,*72
1493895997.06,16087,14.19,73622.8,3.27,1.93,1.85,0,*74
1493895998.29,16088,14.19,73622.5,3.27,1.85,1.75,0,*73
1493895999.54,16089,14.19,73620.3,3.27,2.43,2.55,0,*7A
1493896000.77,16090,14.25,73624.8,3.25,2.51,2.51,0,*77
1493896002.0,16091,14.19,73620.0,3.25,2.51,2.43,0,*75
1493896003.25,16092,14.25,73626.3,3.27,1.71,1.55,0,*71
1493896004.47,16093,14.19,73622.5,3.25,1.97,1.97,0,*74
1493896005.68,16094,14.19,73618.8,3.25,2.21,2.21,0,*73
1493896006.91,16095,14.19,73618.0,3.25,2.17,1.97,0,*79
1493896008.16,16096,14.25,73622.3,3.27,1.93,1.85,0,*74
1493896009.38,16097,14.19,73618.3,3.25,2.25,1.97,0,*7A
1493896010.6,16098,14.19,73612.3,3.25,1.97,1.97,0,*7F
1493896011.83,16099,14.19,73618.0,3.25,2.59,2.59,0,*7E
1493896013.0,16100,14.19,73614.0,3.25,2.27,2.27,0,*7F
1493896014.23,16101,14.19,73618.3,3.25,2.21,2.17,0,*7B
1493896015.4,16102,14.19,73616.3,3.25,2.27,2.27,0,*7D
1493896016.62,16103,14.19,73616.8,3.25,2.51,2.55,0,*78
1493896017.85,16104,14.19,73616.5,3.25,2.59,2.59,0,*7B
1493896019.08,16105,14.25,73620.3,3.25,2.43,2.51,0,*79
1493896020.3,16106,14.19,73618.8,3.25,2.69,2.69,0,*79
1493896021.52,16107,14.19,73612.0,3.25,2.51,2.55,0,*7C
1493896022.73,16108,14.19,73608.8,3.25,1.97,1.83,0,*72
1493896023.95,16109,14.19,73618.0,3.25,1.85,1.93,0,*71
1493896025.18,16110,14.19,73616.8,3.21,2.01,2.01,0,*7A
1493896026.4,16111,14.25,73620.8,3.25,2.05,2.17,0,*7C
1493896027.64,16112,14.19,73614.8,3.21,2.05,2.13,0,*7F
1493896028.81,16113,14.19,73612.0,3.21,2.27,2.35,0,*7A
1493896030.04,16114,14.19,73622.8,3.25,2.17,2.21,0,*7F
1493896031.24,16115,14.19,73616.3,3.21,2.27,2.17,0,*7C
1493896032.47,16116,14.19,73618.0,3.25,2.13,2.13,0,*78
1493896033.68,16117,14.19,73618.0,3.21,2.55,2.61,0,*7A
1493896034.91,16118,14.19,73616.0,3.25,2.43,2.43,0,*76
1493896036.13,16119,14.19,73618.8,3.21,2.47,2.47,0,*73
1493896037.33,16120,14.19,73614.8,3.25,2.31,2.39,0,*75
1493896038.57,16121,14.19,73616.3,3.21,2.25,2.17,0,*79
1493896039.74,16122,14.19,73620.0,3.25,1.83,1.83,0,*7F
1493896040.97,16123,14.19,73620.5,3.21,2.39,2.47,0,*73
1493896042.17,16124,14.19,73616.3,3.25,2.27,2.17,0,*7A
1493896043.35,16125,14.19,73618.5,3.21,2.35,2.35,0,*7C
1493896044.6,16126,14.25,73622.0,3.19,2.17,2.05,0,*77
1493896045.83,16127,14.25,73618.8,3.21,1.63,1.55,0,*7B
1493896047.05,16128,14.19,73620.3,3.19,1.41,1.29,0,*74
1493896048.27,16129,14.19,73616.0,3.19,1.89,1.83,0,*71
1493896049.52,16130,14.19,73618.0,3.19,1.63,1.43,0,*71
1493896050.74,16131,14.19,73616.8,3.17,1.47,1.37,0,*7B
1493896051.95,16132,14.19,73618.0,3.17,1.41,1.37,0,*7E
1493896053.17,16133,14.19,73612.0,3.17,1.97,1.97,0,*7E
1493896054.4,16134,14.25,73616.0,3.17,2.09,2.13,0,*72
1493896055.6,16135,14.25,73618.3,3.17,2.35,2.43,0,*79
1493896056.83,16136,14.19,73618.5,3.17,2.47,2.47,0,*7B
1493896058.06,16137,14.19,73616.5,3.17,1.47,1.17,0,*7F
1493896059.28,16138,14.19,73616.8,3.17,1.51,1.47,0,*72
1493896060.5,16139,14.19,73616.8,3.13,1.63,1.63,0,*70
1493896061.76,16140,14.25,73618.5,3.15,1.09,0.91,0,*48
1493896062.97,16141,14.19,73614.3,3.13,0.63,0.59,0,*76
1493896064.19,16142,14.19,73614.0,3.09,0.71,0.59,0,*7D
1493896065.42,16143,14.25,73618.8,3.09,1.33,1.21,0,*75
1493896066.61,16144,14.19,73614.0,3.09,1.51,1.41,0,*70
1493896067.83,16145,14.19,73612.8,3.09,1.51,1.43,0,*73
1493896069.06,16146,14.19,73614.3,3.09,1.29,1.09,0,*71
1493896070.29,16147,14.19,73612.0,3.09,1.17,1.17,0,*72
1493896071.49,16148,14.19,73612.3,3.09,1.79,1.67,0,*72
1493896072.74,16149,14.19,73614.3,3.07,1.47,1.37,0,*75
1493896073.99,16150,14.19,73612.5,3.07,2.01,2.01,0,*7A
1493896075.24,16151,14.19,73614.8,3.07,1.97,1.89,0,*74
1493896076.5,16152,14.25,73620.3,3.07,1.29,1.13,0,*71
1493896077.75,16153,14.19,73612.5,3.07,0.91,0.79,0,*7F
1493896079.01,16154,14.19,73614.8,3.07,1.55,1.55,0,*7E
1493896080.19,16155,14.19,73614.0,3.01,1.79,1.79,0,*79
1493896081.37,16156,14.19,73614.5,3.01,1.79,1.79,0,*7A
1493896082.58,16157,14.25,73616.8,3.05,1.79,1.85,0,*7C
1493896083.75,16158,14.19,73612.5,3.05,1.41,1.41,0,*70
1493896084.94,16159,14.19,73612.3,3.05,1.79,1.75,0,*7D
1493896086.14,16160,14.19,73614.3,3.05,2.31,2.39,0,*73
1493896087.35,16161,14.19,73612.5,3.05,2.35,2.39,0,*76
1493896088.53,16162,14.19,73616.0,3.05,2.35,2.35,0,*79
1493896089.78,16163,14.19,73616.0,3.07,2.13,2.09,0,*71
1493896090.97,16164,14.19,73618.0,3.05,1.75,1.75,0,*7F
1493896092.22,16165,14.25,73620.5,3.07,2.13,2.21,0,*7D
1493896093.47,16166,14.19,73618.0,3.07,1.97,1.97,0,*7F
1493896094.69,16167,14.25,73622.0,3.05,1.67,1.67,0,*7C
1493896095.9,16168,14.19,73618.8,3.05,1.55,1.41,0,*76
1493896097.1,16169,14.19,73620.3,3.05,1.75,1.67,0,*71
1493896098.34,16170,14.19,73618.3,3.05,1.85,1.85,0,*7A
1493896099.56,16171,14.19,73626.0,3.05,1.67,1.63,0,*7F
1493896100.79,16172,14.19,73620.5,3.01,1.93,2.05,0,*70
1493896101.96,16173,14.25,73622.8,3.01,2.31,2.31,0,*7D
1493896103.17,16174,14.25,73622.3,3.05,2.31,2.25,0,*7B
1493896104.4,16175,14.19,73624.8,3.05,2.09,2.01,0,*77
1493896105.62,16176,14.25,73626.8,3.05,1.51,1.47,0,*7B
1493896106.8,16177,14.19,73626.8,3.01,1.83,1.79,0,*7C
1493896108.02,16178,14.19,73624.8,3.01,1.93,1.93,0,*76
1493896109.25,16179,14.19,73624.5,3.01,2.05,2.17,0,*74
1493896110.49,16180,14.25,73630.0,3.01,2.13,2.13,0,*71
1493896111.69,16181,14.19,73626.5,3.05,2.25,2.31,0,*71
1493896112.89,16182,14.25,73628.0,3.05,2.35,2.39,0,*7B
1493896114.11,16183,14.19,73622.5,3.05,1.89,1.89,0,*76
1493896115.36,16184,14.19,73626.0,3.07,2.21,2.21,0,*73
1493896116.59,16185,14.25,73622.8,3.05,2.25,2.25,0,*70
1493896117.81,16186,14.19,73620.8,3.05,1.67,1.51,0,*76
1493896119.04,16187,14.25,73630.0,3.07,1.79,1.67,0,*7F
1493896120.27,16188,14.19,73622.8,3.05,1.67,1.55,0,*7C
1493896121.5,16189,14.25,73626.3,3.05,1.55,1.51,0,*78
1493896122.72,16190,14.25,73628.3,3.05,1.67,1.67,0,*74
1493896123.95,16191,14.19,73626.3,3.01,1.17,0.87,0,*49
1493896125.22,16192,14.19,73624.8,2.97,1.21,1.29,0,*74
1493896126.48,16193,14.25,73628.0,2.97,2.13,2.13,0,*7D
1493896127.71,16194,14.19,73626.8,3.01,2.17,2.17,0,*74
1493896128.97,16195,14.19,73626.0,2.97,2.25,2.17,0,*7A
1493896130.2,16196,14.19,73628.8,3.01,1.93,1.93,0,*76
1493896131.43,16197,14.19,73630.3,2.97,1.71,1.83,0,*74
1493896132.62,16198,14.19,73624.8,3.01,1.47,1.41,0,*7E
1493896133.84,16199,14.19,73628.8,3.01,1.67,1.71,0,*7E